FW8822 Weather Reports


time (UTC)temp
F
wind
direction
speed
knots
gust
knots
rain 1hr
in
rain 24hr
in
rain mn
in
humidity
%
barometer
mb
20260507040055 53 0 0.0 0.0 0.00 0.00 0.00 89 1020.1
20260507034606 53 0 0.0 0.0 0.00 0.00 0.00 89 1020.1
20260507033055 53 0 0.0 0.0 0.00 0.00 0.00 88 1019.9
20260507031554 53 0 0.0 0.0 0.00 0.00 0.00 87 1019.7
20260507024557 54 0 0.0 1.7 0.00 0.00 0.00 86 1019.6
20260507023056 54 0 0.0 0.9 0.00 0.00 0.00 85 1019.4
20260507021556 54 277 0.0 1.7 0.00 0.00 0.00 85 1019.4
20260507020059 54 274 0.0 0.9 0.00 0.00 0.00 84 1019.4
20260507014559 54 274 0.0 0.9 0.00 0.00 0.00 83 1019.4
20260507013101 54 280 0.9 2.6 0.00 0.00 0.00 83 1019.3
20260507011559 55 0 0.9 4.3 0.00 0.00 0.00 83 1019.4
20260507010056 55 286 0.0 3.5 0.00 0.00 0.00 83 1019.5
20260507004605 55 275 0.9 4.3 0.00 0.00 0.00 82 1019.5
20260507003101 56 298 0.9 4.3 0.00 0.00 0.00 81 1019.4
20260507001558 56 277 1.7 3.5 0.00 0.00 0.00 80 1019.3
20260507000054 56 278 0.9 3.5 0.00 0.00 0.00 80 1019.2
20260506234555 57 263 1.7 4.3 0.00 0.00 0.00 77 1019.2
20260506233052 57 284 1.7 2.6 0.00 0.00 0.00 76 1019.3
20260506231555 57 0 0.0 0.9 0.00 0.00 0.00 74 1019.4
20260506230056 57 210 0.0 3.5 0.00 0.00 0.00 75 1019.4
20260506224607 57 196 2.6 4.3 0.00 0.00 0.00 74 1019.5
20260506223101 57 207 1.7 4.3 0.00 0.00 0.00 73 1019.4
20260506221558 58 200 1.7 6.1 0.00 0.00 0.00 73 1019.5
20260506220055 58 247 0.0 3.5 0.00 0.00 0.00 78 1019.6
20260506214609 57 0 0.9 3.5 0.00 0.00 0.00 78 1019.6
20260506213057 57 221 1.7 5.2 0.00 0.00 0.00 79 1019.7
20260506211558 57 189 1.7 4.3 0.00 0.00 0.00 74 1019.7
20260506210100 57 208 0.0 6.1 0.00 0.00 0.00 75 1019.8
20260506204624 57 210 2.6 6.1 0.00 0.00 0.00 74 1019.8
20260506203059 56 180 1.7 4.3 0.00 0.00 0.00 74 1019.6
20260506201558 56 144 0.9 4.3 0.00 0.00 0.00 76 1019.6
20260506200052 55 190 1.7 6.1 0.00 0.00 0.00 80 1019.5
20260506193059 55 196 1.7 7.0 0.00 0.00 0.00 77 1019.4
20260506191554 54 194 3.5 9.6 0.00 0.00 0.00 77 1019.3
20260506190053 54 206 3.5 8.7 0.00 0.00 0.00 78 1019.3
20260506184557 54 234 1.7 6.1 0.00 0.00 0.00 84 1019.3
20260506183105 53 140 4.3 11.3 0.00 0.00 0.00 80 1019.2
20260506181558 53 189 0.9 6.1 0.00 0.00 0.00 81 1019.2
20260506174556 52 193 2.6 6.1 0.00 0.00 0.00 83 1019.2
20260506173054 52 199 3.5 8.7 0.00 0.00 0.00 83 1018.8
20260506171604 52 165 2.6 10.4 0.00 0.00 0.00 84 1018.9
20260506170107 52 218 2.6 8.7 0.00 0.00 0.00 86 1019.1
20260506164600 52 158 2.6 8.7 0.00 0.00 0.00 85 1018.9
20260506163104 52 166 1.7 7.8 0.00 0.00 0.00 86 1018.9
20260506161606 52 183 0.9 6.1 0.00 0.00 0.00 87 1018.8
20260506160055 51 214 1.7 6.1 0.00 0.00 0.00 88 1018.8
20260506154612 51 214 0.9 7.8 0.00 0.00 0.00 89 1018.3
20260506153056 51 132 2.6 10.4 0.00 0.00 0.00 90 1018.3
20260506151558 51 235 0.0 5.2 0.00 0.00 0.00 91 1018.4
20260506150054 51 195 2.6 6.1 0.00 0.00 0.00 90 1018.4
20260506144602 51 0 0.9 6.1 0.00 0.00 0.00 90 1018.7
20260506143056 51 196 1.7 5.2 0.00 0.00 0.00 90 1017.9
20260506141602 51 213 0.9 6.1 0.00 0.00 0.00 90 1018.2
20260506140100 51 196 1.7 6.1 0.00 0.00 0.00 90 1018.2
20260506134557 50 208 0.0 4.3 0.00 0.00 0.00 91 1018.1
20260506133102 50 210 0.9 6.1 0.00 0.00 0.00 91 1017.9
20260506131555 50 185 0.9 2.6 0.00 0.00 0.00 90 1018.0
20260506130054 50 211 0.9 5.2 0.00 0.00 0.00 90 1018.0
20260506124556 50 239 0.0 3.5 0.00 0.00 0.00 90 1017.8
20260506123052 51 172 0.9 5.2 0.00 0.00 0.00 90 1017.3
20260506121553 51 214 0.9 5.2 0.00 0.00 0.00 89 1017.5
20260506120055 51 212 1.7 5.2 0.00 0.00 0.00 89 1017.4
20260506114600 51 163 1.7 3.5 0.00 0.00 0.00 89 1017.2
20260506113102 51 195 1.7 5.2 0.00 0.00 0.00 89 1017.2
20260506111602 51 227 0.9 3.5 0.00 0.00 0.00 88 1017.2
20260506110058 51 175 0.9 5.2 0.00 0.00 0.00 88 1017.1
20260506104600 51 199 1.7 6.1 0.00 0.00 0.00 88 1017.2
20260506103100 51 215 0.9 4.3 0.00 0.00 0.00 89 1017.1
20260506101556 51 196 1.7 6.1 0.00 0.00 0.00 89 1017.0
20260506100101 51 0 0.9 3.5 0.00 0.00 0.00 90 1017.0
20260506094555 51 184 3.5 10.4 0.00 0.00 0.00 89 1016.8
20260506093056 51 209 1.7 8.7 0.00 0.00 0.00 89 1016.7
20260506091557 51 225 1.7 7.0 0.00 0.00 0.00 89 1016.6
20260506090057 51 201 0.9 3.5 0.00 0.00 0.00 88 1016.5
20260506084608 51 208 0.9 4.3 0.00 0.00 0.00 88 1016.3
20260506083100 51 208 0.9 4.3 0.00 0.00 0.00 87 1016.3
20260506081602 51 213 0.0 3.5 0.00 0.00 0.00 87 1016.1
20260506073057 52 217 0.9 4.3 0.00 0.00 0.00 85 1015.9
20260506071556 53 210 1.7 5.2 0.00 0.00 0.00 84 1015.8
20260506061613 54 203 2.6 7.8 0.00 0.00 0.00 82 1015.4
20260506060104 55 206 2.6 5.2 0.00 0.00 0.00 81 1015.4
20260506044632 58 75 0.9 7.0 0.00 0.00 0.00 78 1014.9
20260506043055 58 209 1.7 6.1 0.00 0.00 0.00 79 1014.8
20260506041555 57 0 0.0 1.7 0.00 0.00 0.00 81 1014.7